User: anonymous   Login
Location: Unspecified
(0.0000°N, 0.0000°E)
Time: 22:19:35
(UTC+00:00)
Language:

LES 1 - Orbit

View from above orbital plane
View from above orbital plane
View from above satellite
View from above satellite

Ground track
Ground track

The orbit data is extracted from the following two-line orbital elements,

1  1002U 65008C   17326.23708320 +.00000030 +00000-0 +28537-2 0  9996
2  1002 032.1434 257.0942 0015271 125.2436 234.9492 09.88352461906611
Epoch (UTC): 22 November 2017 05:41:23
Eccentricity: 0.0015271
inclination: 32.1434°
perigee height: 2780 km
apogee height: 2808 km
right ascension of ascending node: 257.0942°
argument of perigee: 125.2436°
revolutions per day: 9.88352461
mean anomaly at epoch: 234.9492°
orbit number at epoch: 90661

The dashed part of the orbit path shows where the satellite is in the earth's shadow,  

DLR